User: anonymous   Login
Location: Bakov nad Jizerou
(50.4784°N, 14.9394°E)
Time: 02:58:46
(UTC+00:00)
Language:

Cosmos 1300 - Orbit

View from above orbital plane
View from above orbital plane
View from above satellite
View from above satellite

Ground track
Ground track

The orbit data is extracted from the following two-line orbital elements,

1 12785U 81082A   21260.50524609  .00000814  00000-0  38222-4 0  9998
2 12785  82.5054 335.8964 0000762 136.7837 233.9501 15.18233938187414
Epoch (UTC): 17 September 2021 12:07:33
Eccentricity: 0.0000762
inclination: 82.5054°
perigee height: 510 km
apogee height: 512 km
right ascension of ascending node: 335.8964°
argument of perigee: 136.7837°
revolutions per day: 15.18233938
mean anomaly at epoch: 233.9501°
orbit number at epoch: 18741

The dashed part of the orbit path shows where the satellite is in the earth's shadow,  

DLR